CW2274 Weather Reports


Display with metric or nautical units.
time (UTC)temp
F
wind
direction
speed
MPH
gust
MPH
rain 1hr
in
rain 24hr
in
rain mn
in
humidity
%
barometer
mb
20191212042324 49 275 2.0 4.0 0.00 0.00 0.00 81 1022.1
20191212041818 49 282 2.0 3.0 0.00 0.00 0.00 80 1022.1
20191212041331 50 282 2.0 4.0 0.00 0.00 0.00 79 1022.1
20191212040824 50 282 3.0 4.0 0.00 0.00 0.00 81 1022.2
20191212040318 49 284 2.0 3.0 0.00 0.00 0.00 83 1022.2
20191212035828 48 284 2.0 2.0 0.00 0.00 0.00 84 1022.2
20191212035322 48 284 1.0 3.0 0.00 0.00 0.00 83 1022.2
20191212034818 49 284 2.0 3.0 0.00 0.00 0.00 82 1022.2
20191212034331 50 284 0.0 2.0 0.00 0.00 0.00 78 1022.2
20191212033822 50 284 1.0 2.0 0.00 0.00 0.00 80 1022.1
20191212033315 51 284 0.0 2.0 0.00 0.00 0.00 77 1022.1
20191212032828 51 284 0.0 2.0 0.00 0.00 0.00 78 1021.9
20191212032321 50 284 0.0 3.0 0.00 0.00 0.00 82 1021.8
20191212031813 49 284 2.0 3.0 0.00 0.00 0.00 81 1021.7
20191212031326 50 284 1.0 2.0 0.00 0.00 0.00 79 1021.4
20191212030823 51 284 1.0 2.0 0.00 0.00 0.00 79 1021.6
20191212030317 51 284 1.0 2.0 0.00 0.00 0.00 77 1021.6
20191212025827 51 284 1.0 3.0 0.00 0.00 0.00 79 1021.5
20191212025321 50 284 1.0 3.0 0.00 0.00 0.00 80 1021.5
20191212024815 51 284 0.0 3.0 0.00 0.00 0.00 79 1021.4
20191212024327 51 284 1.0 3.0 0.00 0.00 0.00 78 1021.3
20191212023820 51 284 2.0 3.0 0.00 0.00 0.00 78 1021.4
20191212023313 52 284 2.0 3.0 0.00 0.00 0.00 78 1021.3
20191212022829 51 284 2.0 3.0 0.00 0.00 0.00 81 1021.2
20191212022322 50 284 0.0 2.0 0.00 0.00 0.00 81 1021.3
20191212021814 51 284 0.0 2.0 0.00 0.00 0.00 80 1021.2
20191212021326 51 284 1.0 2.0 0.00 0.00 0.00 81 1021.2
20191212020819 51 284 0.0 2.0 0.00 0.00 0.00 81 1021.1
20191212020312 51 284 1.0 2.0 0.00 0.00 0.00 80 1021.2
20191212015823 52 284 0.0 2.0 0.00 0.00 0.00 79 1021.2
20191212015314 52 284 0.0 1.0 0.00 0.00 0.00 78 1021.2
20191212014830 53 284 0.0 1.0 0.00 0.00 0.00 76 1021.1
20191212014323 52 284 0.0 2.0 0.00 0.00 0.00 76 1021.3
20191212013816 53 284 0.0 2.0 0.00 0.00 0.00 74 1021.3
20191212013330 53 284 1.0 2.0 0.00 0.00 0.00 74 1021.3
20191212012823 55 284 1.0 4.0 0.00 0.00 0.00 70 1021.3
20191212012316 55 284 2.0 4.0 0.00 0.00 0.00 69 1021.4
20191212011830 55 287 2.0 3.0 0.00 0.00 0.00 69 1021.4
20191212011323 55 285 1.0 3.0 0.00 0.00 0.00 69 1021.3
20191212010820 55 285 1.0 3.0 0.00 0.00 0.00 70 1021.3
20191212010313 56 285 1.0 2.0 0.00 0.00 0.00 69 1021.3
20191212005825 56 285 1.0 3.0 0.00 0.00 0.00 68 1021.1
20191212005318 57 285 1.0 3.0 0.00 0.00 0.00 67 1021.1
20191212004812 57 286 1.0 2.0 0.00 0.00 0.00 67 1021.1
20191212004323 57 286 1.0 2.0 0.00 0.00 0.00 67 1020.9
20191212003816 58 286 1.0 2.0 0.00 0.00 0.00 67 1020.8
20191212003312 58 286 1.0 2.0 0.00 0.00 0.00 67 1020.7
20191212002824 58 286 0.0 4.0 0.00 0.00 0.00 67 1020.8
20191212002316 59 286 2.0 4.0 0.00 0.00 0.00 65 1020.7
20191212001828 60 286 2.0 4.0 0.00 0.00 0.00 63 1020.8
20191212001321 60 290 2.0 4.0 0.00 0.00 0.00 62 1020.7
20191212000814 60 291 2.0 4.0 0.00 0.00 0.00 60 1020.7
20191212000327 61 345 1.0 3.0 0.00 0.00 0.00 56 1020.6
20191211235817 62 11 1.0 3.0 0.00 0.00 0.00 50 1020.4
20191211235314 62 25 0.0 1.0 0.00 0.00 0.00 47 1020.2
20191211234828 63 25 0.0 2.0 0.00 0.00 0.00 46 1020.2
20191211234321 63 25 0.0 2.0 0.00 0.00 0.00 48 1020.2
20191211233813 62 25 0.0 2.0 0.00 0.00 0.00 49 1020.2
20191211233326 63 25 0.0 2.0 0.00 0.00 0.00 45 1020.2
20191211232819 64 25 0.0 2.0 0.00 0.00 0.00 46 1020.2
20191211232312 64 25 1.0 2.0 0.00 0.00 0.00 45 1020.3
20191211231825 64 25 1.0 3.0 0.00 0.00 0.00 47 1020.3
20191211231322 64 26 1.0 3.0 0.00 0.00 0.00 45 1020.4
20191211230815 65 26 1.0 3.0 0.00 0.00 0.00 43 1020.3
20191211230329 65 26 0.0 2.0 0.00 0.00 0.00 44 1020.3
20191211225819 65 26 1.0 2.0 0.00 0.00 0.00 43 1020.3
20191211225312 65 26 0.0 2.0 0.00 0.00 0.00 44 1020.3
20191211224825 65 26 1.0 2.0 0.00 0.00 0.00 44 1020.3
20191211224318 65 26 0.0 2.0 0.00 0.00 0.00 39 1020.3
20191211223812 66 26 1.0 4.0 0.00 0.00 0.00 44 1020.4
20191211223328 66 26 2.0 4.0 0.00 0.00 0.00 38 1020.5
20191211222821 65 29 0.0 4.0 0.00 0.00 0.00 41 1020.5
20191211222314 65 29 1.0 4.0 0.00 0.00 0.00 40 1020.7
20191211221827 66 28 2.0 3.0 0.00 0.00 0.00 39 1020.6
20191211221319 66 27 1.0 3.0 0.00 0.00 0.00 40 1020.6
20191211220811 66 25 2.0 3.0 0.00 0.00 0.00 41 1020.7
20191211220325 66 21 2.0 4.0 0.00 0.00 0.00 39 1020.7
20191211215815 66 26 2.0 4.0 0.00 0.00 0.00 40 1020.7
20191211215312 66 26 1.0 4.0 0.00 0.00 0.00 39 1020.8
20191211214825 67 23 2.0 4.0 0.00 0.00 0.00 39 1020.7
20191211214318 66 82 2.0 7.0 0.00 0.00 0.00 38 1020.7
20191211213831 67 76 3.0 7.0 0.00 0.00 0.00 39 1020.7
20191211213324 65 63 2.0 6.0 0.00 0.00 0.00 41 1020.6
20191211212817 66 101 3.0 6.0 0.00 0.00 0.00 41 1020.6
20191211212330 66 89 1.0 4.0 0.00 0.00 0.00 41 1020.8
20191211211824 66 89 2.0 7.0 0.00 0.00 0.00 42 1020.7
20191211211321 65 106 3.0 7.0 0.00 0.00 0.00 41 1020.7
20191211210815 67 271 1.0 3.0 0.00 0.00 0.00 42 1020.6
20191211210328 67 271 2.0 3.0 0.00 0.00 0.00 43 1020.7
20191211205818 66 269 2.0 3.0 0.00 0.00 0.00 40 1020.8
20191211205331 65 267 1.0 3.0 0.00 0.00 0.00 42 1020.9
20191211204824 65 268 2.0 3.0 0.00 0.00 0.00 44 1021.0
20191211204317 66 235 1.0 4.0 0.00 0.00 0.00 44 1021.1
20191211203815 65 104 2.0 4.0 0.00 0.00 0.00 43 1021.1
20191211203328 66 127 2.0 5.0 0.00 0.00 0.00 43 1020.9
20191211202821 64 52 2.0 5.0 0.00 0.00 0.00 45 1020.9
20191211202314 65 96 2.0 6.0 0.00 0.00 0.00 44 1021.0
20191211201827 65 64 3.0 7.0 0.00 0.00 0.00 44 1021.1
20191211201320 64 89 3.0 8.0 0.00 0.00 0.00 44 1021.2
20191211200813 64 101 5.0 10.0 0.00 0.00 0.00 45 1021.3
20191211200327 64 97 6.0 10.0 0.00 0.00 0.00 44 1021.2
20191211195821 65 94 6.0 10.0 0.00 0.00 0.00 44 1021.2
20191211195313 65 90 4.0 10.0 0.00 0.00 0.00 44 1021.2
20191211194826 63 128 6.0 10.0 0.00 0.00 0.00 45 1021.1
20191211194318 63 107 4.0 9.0 0.00 0.00 0.00 45 1021.2
20191211193831 63 108 3.0 7.0 0.00 0.00 0.00 44 1021.1
20191211193324 63 117 3.0 6.0 0.00 0.00 0.00 44 1021.0
20191211192816 62 104 3.0 6.0 0.00 0.00 0.00 43 1021.3
20191211192328 63 113 3.0 7.0 0.00 0.00 0.00 44 1021.3
20191211191826 62 129 4.0 8.0 0.00 0.00 0.00 44 1021.4
20191211191317 62 91 4.0 8.0 0.00 0.00 0.00 45 1021.6
20191211190829 62 102 1.0 5.0 0.00 0.00 0.00 48 1021.8
20191211190321 61 101 3.0 5.0 0.00 0.00 0.00 47 1021.9
20191211185812 62 94 1.0 5.0 0.00 0.00 0.00 49 1022.1
20191211185325 61 64 1.0 4.0 0.00 0.00 0.00 47 1022.1
20191211184818 62 16 1.0 4.0 0.00 0.00 0.00 48 1022.3
20191211184329 62 302 2.0 4.0 0.00 0.00 0.00 46 1022.4
20191211183827 61 65 1.0 3.0 0.00 0.00 0.00 48 1022.5
20191211183320 61 65 2.0 4.0 0.00 0.00 0.00 49 1022.6
20191211182813 61 62 1.0 4.0 0.00 0.00 0.00 49 1022.6
20191211182327 60 51 3.0 5.0 0.00 0.00 0.00 51 1022.8
20191211181819 61 30 2.0 4.0 0.00 0.00 0.00 52 1022.9
20191211181313 60 54 1.0 4.0 0.00 0.00 0.00 52 1022.8
20191211180825 59 66 3.0 4.0 0.00 0.00 0.00 51 1023.1
20191211180318 60 72 2.0 4.0 0.00 0.00 0.00 54 1023.2
20191211175813 59 46 1.0 6.0 0.00 0.00 0.00 53 1023.4
20191211174821 60 10 2.0 6.0 0.00 0.00 0.00 53 1023.5
20191211174313 60 7 2.0 5.0 0.00 0.00 0.00 55 1023.6
20191211173826 59 354 3.0 6.0 0.00 0.00 0.00 55 1023.7
20191211173320 59 311 2.0 6.0 0.00 0.00 0.00 59 1023.7
20191211172813 59 38 3.0 6.0 0.00 0.00 0.00 59 1023.8
20191211172327 59 80 2.0 7.0 0.00 0.00 0.00 51 1023.9
20191211171823 59 61 3.0 7.0 0.00 0.00 0.00 54 1023.8
20191211171315 59 90 2.0 6.0 0.00 0.00 0.00 56 1023.8
20191211170828 59 62 2.0 6.0 0.00 0.00 0.00 55 1023.7
20191211170319 58 65 1.0 8.0 0.00 0.00 0.00 57 1023.6
20191211165830 57 78 5.0 8.0 0.00 0.00 0.00 56 1023.5
20191211165321 57 117 3.0 7.0 0.00 0.00 0.00 58 1023.4
20191211164813 56 146 3.0 8.0 0.00 0.00 0.00 58 1023.4
20191211164326 55 135 3.0 8.0 0.00 0.00 0.00 62 1023.4
20191211163822 55 139 2.0 5.0 0.00 0.00 0.00 65 1023.3
20191211163315 54 154 3.0 8.0 0.00 0.00 0.00 64 1023.1
20191211162828 54 123 3.0 8.0 0.00 0.00 0.00 65 1022.9
20191211162321 54 132 4.0 8.0 0.00 0.00 0.00 65 1022.9
20191211161815 53 135 3.0 8.0 0.00 0.00 0.00 67 1023.0
20191211161327 53 112 3.0 6.0 0.00 0.00 0.00 70 1022.9
20191211160820 51 113 3.0 8.0 0.00 0.00 0.00 75 1022.9
20191211160317 50 93 3.0 8.0 0.00 0.00 0.00 75 1022.8
20191211155828 50 103 4.0 6.0 0.00 0.00 0.00 76 1022.7
20191211155322 49 129 3.0 8.0 0.00 0.00 0.00 76 1022.8
20191211154814 50 121 4.0 8.0 0.00 0.00 0.00 74 1022.8
20191211154327 50 111 3.0 8.0 0.00 0.00 0.00 73 1022.8
20191211153820 49 130 3.0 6.0 0.00 0.00 0.00 75 1022.7
20191211153313 49 108 3.0 6.0 0.00 0.00 0.00 76 1022.7
20191211152826 49 111 3.0 8.0 0.00 0.00 0.00 78 1022.6
20191211152323 48 117 4.0 8.0 0.00 0.00 0.00 78 1022.6
20191211151816 48 124 3.0 6.0 0.00 0.00 0.00 79 1022.6
20191211151329 48 113 3.0 6.0 0.00 0.00 0.00 80 1022.6
20191211150822 47 126 3.0 7.0 0.00 0.00 0.00 82 1022.6
20191211150315 47 144 2.0 4.0 0.00 0.00 0.00 83 1022.8
20191211145825 47 151 1.0 5.0 0.00 0.00 0.00 83 1022.8
20191211145317 46 152 2.0 5.0 0.00 0.00 0.00 84 1022.7
20191211144829 46 109 2.0 4.0 0.00 0.00 0.00 86 1022.7
20191211144325 45 96 1.0 2.0 0.00 0.00 0.00 87 1022.9
20191211143818 44 96 0.0 2.0 0.00 0.00 0.00 89 1022.8
20191211143329 44 96 1.0 2.0 0.00 0.00 0.00 89 1022.8
20191211142822 45 96 1.0 2.0 0.00 0.00 0.00 87 1022.8
20191211142313 45 96 1.0 2.0 0.00 0.00 0.00 89 1022.8
20191211141825 45 96 1.0 4.0 0.00 0.00 0.00 88 1022.7
20191211141317 44 96 2.0 4.0 0.00 0.00 0.00 90 1022.6
20191211140829 44 42 2.0 3.0 0.00 0.00 0.00 90 1022.6
20191211140325 44 42 0.0 3.0 0.00 0.00 0.00 89 1022.8
20191211135816 45 101 1.0 4.0 0.00 0.00 0.00 88 1022.7
20191211135328 46 102 2.0 4.0 0.00 0.00 0.00 84 1022.6
20191211134821 48 129 2.0 4.0 0.00 0.00 0.00 81 1022.6
20191211134314 47 206 1.0 3.0 0.00 0.00 0.00 83 1022.7
20191211133827 47 206 0.0 3.0 0.00 0.00 0.00 82 1022.4
20191211133320 48 206 1.0 3.0 0.00 0.00 0.00 82 1022.3
20191211132813 48 204 0.0 4.0 0.00 0.00 0.00 82 1022.3
20191211132329 47 193 1.0 4.0 0.00 0.00 0.00 84 1022.3
20191211131821 47 193 2.0 4.0 0.00 0.00 0.00 85 1022.2
20191211131313 46 213 1.0 3.0 0.00 0.00 0.00 88 1022.2
20191211130825 45 213 1.0 3.0 0.00 0.00 0.00 90 1022.2
20191211130317 44 213 1.0 3.0 0.00 0.00 0.00 94 1022.1
20191211125827 43 213 1.0 3.0 0.00 0.00 0.00 93 1022.1
20191211125319 44 213 0.0 2.0 0.00 0.00 0.00 93 1022.1
20191211124831 43 213 1.0 2.0 0.00 0.00 0.00 94 1022.0
20191211124327 44 213 0.0 0.0 0.00 0.00 0.00 93 1022.0
20191211123819 43 213 0.0 0.0 0.00 0.00 0.00 92 1021.9
20191211123332 44 213 0.0 2.0 0.00 0.00 0.00 93 1022.0
20191211122823 43 213 0.0 2.0 0.00 0.00 0.00 94 1021.9
20191211122315 42 213 0.0 3.0 0.00 0.00 0.00 95 1021.9
20191211121828 42 213 1.0 3.0 0.00 0.00 0.00 95 1022.1
20191211121321 42 213 2.0 3.0 0.00 0.00 0.00 94 1022.2
20191211120814 42 213 0.0 2.0 0.00 0.00 0.00 94 1022.3
20191211120331 42 213 0.0 1.0 0.00 0.00 0.00 94 1022.2
20191211115821 43 213 0.0 2.0 0.00 0.00 0.00 94 1022.2
20191211115313 42 213 0.0 2.0 0.00 0.00 0.00 94 1022.3
20191211114827 43 213 1.0 3.0 0.00 0.00 0.00 94 1022.3
20191211114322 43 213 2.0 3.0 0.00 0.00 0.00 94 1022.3
20191211113815 43 213 1.0 3.0 0.00 0.00 0.00 94 1022.3
20191211113328 43 213 1.0 2.0 0.00 0.00 0.00 93 1022.3
20191211112822 44 213 0.0 1.0 0.00 0.00 0.00 94 1022.3
20191211112319 43 213 0.0 3.0 0.00 0.00 0.00 94 1022.3
20191211111812 43 213 2.0 3.0 0.00 0.00 0.00 94 1022.3
20191211111325 43 213 1.0 3.0 0.00 0.00 0.00 94 1022.4
20191211110817 43 213 1.0 3.0 0.00 0.00 0.00 94 1022.5
20191211110329 43 213 1.0 2.0 0.00 0.00 0.00 94 1022.5
20191211105821 43 213 0.0 0.0 0.00 0.00 0.00 94 1022.4
20191211105314 43 213 0.0 2.0 0.00 0.00 0.00 94 1022.5
20191211104826 44 213 1.0 2.0 0.00 0.00 0.00 94 1022.6
20191211104324 44 213 0.0 2.0 0.00 0.00 0.00 94 1022.7
20191211103816 44 213 1.0 2.0 0.00 0.00 0.00 93 1022.6
20191211103329 45 213 0.0 2.0 0.00 0.00 0.00 93 1022.6
20191211102822 44 213 1.0 2.0 0.00 0.00 0.00 93 1022.6
20191211102314 44 213 0.0 1.0 0.00 0.00 0.00 94 1022.6
20191211101828 45 213 0.0 1.0 0.00 0.00 0.00 93 1022.6
20191211101320 44 213 0.0 1.0 0.00 0.00 0.00 95 1022.6
20191211100818 44 213 0.0 0.0 0.00 0.00 0.00 95 1022.7
20191211100312 44 213 0.0 3.0 0.00 0.00 0.00 95 1022.8
20191211095823 44 213 0.0 3.0 0.00 0.00 0.00 95 1022.8
20191211095315 44 213 1.0 3.0 0.00 0.00 0.00 94 1022.9
20191211094829 44 213 0.0 2.0 0.00 0.00 0.00 95 1023.0
20191211094321 44 213 1.0 2.0 0.00 0.00 0.00 95 1023.1
20191211093814 44 213 0.0 2.0 0.00 0.00 0.00 94 1023.2
20191211093327 44 213 1.0 3.0 0.00 0.00 0.00 94 1023.3
20191211092824 44 213 2.0 3.0 0.00 0.00 0.00 94 1023.2
20191211092316 44 213 0.0 2.0 0.00 0.00 0.00 94 1023.1
20191211091322 45 212 0.0 1.0 0.00 0.00 0.00 94 1023.2
20191211090816 44 213 0.0 2.0 0.00 0.00 0.00 93 1023.2
20191211090329 44 213 0.0 2.0 0.00 0.00 0.00 93 1023.1
20191211085820 45 212 0.0 2.0 0.00 0.00 0.00 92 1023.2
20191211085313 45 211 1.0 2.0 0.00 0.00 0.00 92 1023.2
20191211084830 46 212 0.0 1.0 0.00 0.00 0.00 92 1023.2
20191211084323 46 212 0.0 3.0 0.00 0.00 0.00 90 1023.2
20191211083816 47 212 1.0 3.0 0.00 0.00 0.00 88 1023.2
20191211083330 48 211 1.0 3.0 0.00 0.00 0.00 88 1023.0
20191211082823 48 211 1.0 3.0 0.00 0.00 0.00 88 1023.1
20191211082316 48 211 2.0 3.0 0.00 0.00 0.00 88 1023.0
20191211081829 47 215 1.0 3.0 0.00 0.00 0.00 90 1023.2
20191211081322 47 269 0.0 3.0 0.00 0.00 0.00 92 1023.3
20191211080819 46 269 1.0 3.0 0.00 0.00 0.00 93 1023.3
20191211080312 45 269 2.0 2.0 0.00 0.00 0.00 94 1023.5
20191211075823 45 269 1.0 2.0 0.00 0.00 0.00 94 1023.4
20191211075315 45 269 1.0 2.0 0.00 0.00 0.00 94 1023.5
20191211074828 45 269 1.0 2.0 0.00 0.00 0.00 94 1023.6
20191211074321 45 269 0.0 2.0 0.00 0.00 0.00 94 1023.7
20191211073814 44 269 1.0 2.0 0.00 0.00 0.00 94 1023.9
20191211073312 44 269 0.0 1.0 0.00 0.00 0.00 94 1023.9
20191211072825 45 269 0.0 1.0 0.00 0.00 0.00 93 1023.9
20191211072318 46 269 1.0 2.0 0.00 0.00 0.00 94 1024.0
20191211071812 45 269 1.0 2.0 0.00 0.00 0.00 93 1024.0
20191211071327 45 269 0.0 1.0 0.00 0.00 0.00 93 1024.1
20191211070821 45 269 0.0 1.0 0.00 0.00 0.00 92 1024.3
20191211070315 46 269 0.0 2.0 0.00 0.00 0.00 92 1024.2
20191211065827 46 269 1.0 2.0 0.00 0.00 0.00 91 1024.3
20191211065326 47 269 1.0 2.0 0.00 0.00 0.00 91 1024.2
20191211064819 47 269 1.0 2.0 0.00 0.00 0.00 90 1024.3
20191211064315 47 269 1.0 3.0 0.00 0.00 0.00 89 1024.2
20191211063829 48 269 1.0 4.0 0.00 0.00 0.00 89 1024.3
20191211063323 48 269 2.0 4.0 0.00 0.00 0.00 90 1024.4
20191211062816 47 279 1.0 3.0 0.00 0.00 0.00 90 1024.4
20191211062330 47 279 0.0 2.0 0.00 0.00 0.00 91 1024.4
20191211061824 46 279 0.0 2.0 0.00 0.00 0.00 90 1024.4
20191211061321 47 279 1.0 2.0 0.00 0.00 0.00 90 1024.4
20191211060814 47 279 0.0 2.0 0.00 0.00 0.00 90 1024.4
20191211060327 47 279 0.0 0.0 0.00 0.00 0.00 91 1024.3
20191211051820 50 279 1.0 3.0 0.00 0.00 0.00 84 1024.8
20191211051312 50 279 1.0 3.0 0.00 0.00 0.00 84 1024.8
20191211050825 50 279 2.0 3.0 0.00 0.00 0.00 83 1024.7
20191211050317 51 279 2.0 3.0 0.00 0.00 0.00 82 1024.6
20191211045827 50 279 1.0 3.0 0.00 0.00 0.00 83 1024.7
20191211045323 51 279 2.0 3.0 0.00 0.00 0.00 82 1024.6
20191211044815 51 279 1.0 3.0 0.00 0.00 0.00 81 1024.6
20191211044327 51 279 1.0 3.0 0.00 0.00 0.00 81 1024.5
20191211043819 52 279 2.0 3.0 0.00 0.00 0.00 80 1024.4
20191211043331 51 279 1.0 3.0 0.00 0.00 0.00 81 1024.5
20191211042823 52 279 2.0 4.0 0.00 0.00 0.00 79 1024.3